Regional Weather Roundup
Issued by NWS

Home | Current Version | Previous Version | Text Only | Print | Product List | Glossary Off
Versions: 1 2 3 4 5 6 7 8 9 10 11 12 13 14 15 16 17 18 19 20 21 22 23 24 25 26 27 28 29 30 31 32 33 34 35 36 37 38 39 40 41 42 43 44 45 46 47 48 49 50

658
ASUS43 KMKX 290000
RWRWI

WISCONSIN REGIONAL WEATHER ROUNDUP
NATIONAL WEATHER SERVICE MILWAUKEE/SULLIVAN WI
700 PM CDT WED SEP 28 2016

NOTE: "FAIR" INDICATES FEW OR NO CLOUDS BELOW 12,000 FEET WITH NO
SIGNIFICANT WEATHER AND/OR OBSTRUCTIONS TO VISIBILITY.

WIZ001-002-006>008-014>016-023>028-290100-
NORTHWEST WISCONSIN

CITY           SKY/WX    TMP DP  RH WIND       PRES   REMARKS
SUPERIOR ARPT  CLOUDY    55  51  87 N5        30.34R
ASHLAND        CLOUDY    55  51  86 NE9       30.33R
6HR MIN TEMP:  55; 6HR MAX TEMP:  58;

HAYWARD        CLOUDY    54  49  83 N12       30.32R
6HR MIN TEMP:  54; 6HR MAX TEMP:  59; 6HR PCP: TRACE;

SIREN          CLOUDY    57  48  72 NE7       30.32R
CUMBERLAND     CLOUDY    54  48  82 N8        30.30R
RICE LAKE      MOCLDY    57  48  71 N14       30.30R
CHETEK         NOT AVBL
LADYSMITH      MOCLDY    55  53  91 N10       30.29R
EAU CLAIRE     NOT AVBL
MENOMONIE      CLOUDY    60  50  70 NW12      30.25R
NEW RICHMOND   CLOUDY    57  49  74 N12       30.29S
OSCEOLA        CLOUDY    58  50  74 N6        30.33R
$$

WIZ003>005-009-010-017-018-290100-
NORTH CENTRAL WISCONSIN

CITY           SKY/WX    TMP DP  RH WIND       PRES   REMARKS
MANITOWISH WTR NOT AVBL
ARBOR VITAE    CLEAR     57  53  86 NE6       30.26R
WOODRUFF       CLEAR     57  53  86 NE6       30.26R
RHINELANDER    CLEAR     54  52  93 NE6       30.26R
6HR MIN TEMP:  54; 6HR MAX TEMP:  61;

EAGLE RIVER    PTCLDY    54  52  94 NE6       30.26R
LAND O LAKES   PTCLDY    54  50  87 N10       30.29R
PHILLIPS       CLEAR     54  53  95 N5        30.25R
TOMAHAWK       MOCLDY    57  50  77 N6        30.24R
MEDFORD        PTCLDY    56  50  80 N7        30.22R
MERRILL        PTCLDY    57  51  80 NE5       30.23R
$$

WIZ029-030-035-036-043>047-290100-
CENTRAL WISCONSIN

CITY           SKY/WX    TMP DP  RH WIND       PRES   REMARKS
WAUSAU         CLEAR     57  47  69 N5        30.21R
6HR MIN TEMP:  57; 6HR MAX TEMP:  63;

MOSINEE        NOT AVBL
MARSHFIELD     CLEAR     57  47  69 N6        30.21R
6HR MIN TEMP:  57; 6HR MAX TEMP:  65;

STEVENS POINT  PTCLDY    56  47  71 NE7       30.21R
WAUPACA        CLEAR     59  49  70 N3        30.19R
WAUTOMA        PTCLDY    57  51  80 N7        30.19R
6HR MIN TEMP:  56; 6HR MAX TEMP:  63;

WISC RAPIDS    CLEAR     56  49  77 CALM      30.21R
6HR MIN TEMP:  56; 6HR MAX TEMP:  63; 6HR PCP: TRACE;

CAMP DOUGLAS   CLEAR     55  50  82 N2        30.20R
6HR MIN TEMP:  55; 6HR MAX TEMP:  63; 6HR PCP: TRACE;

$$

WIZ011>013-019>022-031-037>040-048>050-290100-
NORTHEAST WISCONSIN

CITY           SKY/WX    TMP DP  RH WIND       PRES   REMARKS
ANTIGO         CLEAR     54  49  81 CALM      30.22R
SHAWANO        CLEAR     61  50  68 NE5       30.20R
OCONTO         NOT AVBL
STURGEON BAY   CLEAR     58  52  80 N7        30.20R
6HR MIN TEMP:  58; 6HR MAX TEMP:  64; 6HR PCP:  0.34;

GREEN BAY      CLEAR     59  54  83 N13       30.19R
6HR MIN TEMP:  58; 6HR MAX TEMP:  63; 6HR PCP: TRACE;

MANITOWOC      NOT AVBL
APPLETON       PTCLDY    57  46  67 NE9       30.17R
CLINTONVILLE   CLEAR     59  46  63 N3        30.19R
OSHKOSH        CLEAR     59  48  67 N9        30.16R
6HR MIN TEMP:  58; 6HR MAX TEMP:  63; 6HR PCP:  0.01;

$$

WIZ032>034-041-042-053>061-290100-
SOUTHWEST WISCONSIN

CITY           SKY/WX    TMP DP  RH WIND       PRES   REMARKS
LA CROSSE      CLOUDY    61  51  70 N5        30.21R
6HR MIN TEMP:  59; 6HR MAX TEMP:  67; 6HR PCP:  0.06;

SPARTA         CLOUDY    59  52  76 CALM      30.21R
VIROQUA        CLOUDY    57  50  77 N5        30.20R
BOSCOBEL       CLOUDY    60  51  72 NE3       30.18R
6HR MIN TEMP:  60; 6HR MAX TEMP:  67; 6HR PCP: TRACE;

PRAIRIE DU CHI MOCLDY    60  51  70 N8        30.17R
PLATTEVILLE    CLEAR     57  53  88 N8        30.16R
$$

WIZ056-057-062-063-064-067-068-290100-
SOUTH CENTRAL WISCONSIN

CITY           SKY/WX    TMP DP  RH WIND       PRES   REMARKS
REEDSBURG      NOT AVBL
BARABOO/DELLS  CLEAR     57  48  72 N3        30.17R
LONE ROCK      NOT AVBL
MINERAL POINT  CLEAR     57  52  82 N7        30.16R
MADISON        CLEAR     56  49  77 N7        30.14R
6HR MIN TEMP:  54; 6HR MAX TEMP:  62; 6HR PCP:  0.10;

MIDDLETON      CLEAR     58  51  76 N6        30.16R
WATERTOWN      CLEAR     59  49  70 N8        30.12R
MONROE         CLEAR     55  50  82 N10       30.12R
JANESVILLE     PTCLDY    61  48  63 N12       30.10R
$$

WIZ051-052-058>065-066-070>072-290100-
SOUTHEAST WISCONSIN

CITY           SKY/WX    TMP DP  RH WIND       PRES   REMARKS
MILWAUKEE      PTCLDY    60  51  72 N17G28    30.10R
6HR MIN TEMP:  58; 6HR MAX TEMP:  62; 6HR PCP: TRACE;

WAUKESHA       CLEAR     55  46  71 N12       30.14R
MILWAUKEE/TIMM CLEAR     57  46  67 N13       30.13R
RACINE         LGT RAIN  57  49  74 NE10G30   30.13R
6HR MIN TEMP:  57; 6HR MAX TEMP:  60; 6HR PCP:  0.01;

BURLINGTON     CLEAR     55  48  76 N6        30.10R
KENOSHA        LGT RAIN  59  51  75 N17G28    30.11R
6HR MIN TEMP:  59; 6HR MAX TEMP:  64; 6HR PCP: TRACE;

FOND DU LAC    CLEAR     59  49  69 NE13      30.17R
6HR MIN TEMP:  57; 6HR MAX TEMP:  64;

SHEBOYGAN      CLEAR     58  49  72 N8        30.14R
6HR MIN TEMP:  58; 6HR MAX TEMP:  62;

WEST BEND      CLEAR     55  48  76 N7        30.14R
JUNEAU         CLEAR     57  48  70 N7        30.15R
$$

LSZ147-162-290100-
LAKE SUPERIOR

STATION/POSITION TIME  TEMP    WIND        PRES    WAVE
                       AIR SEA DIR/SP/G            HT/PER
                 (UTC) (F)     (DEG/KT/KT) (MB)    (FT/S)
W MID LAKE BUOY  2250   55 53   40/  8/  8 1026.0R   3/ 6
DEVILS ISLAND    2300   54      50/  9/ 10 1026.9R
SAXON HARBOR     2340   57      30/ 11/ 12 1026.4R
$$

LMZ867-665-643>646-290100-
LAKE MICHIGAN

STATION/POSITION TIME  TEMP    WIND        PRES    WAVE
                       AIR SEA DIR/SP/G            HT/PER
                 (UTC) (F)     (DEG/KT/KT) (MB)    (FT/S)
CHAMBERS ISLAND  2300   62      40/ 12/ 16 1021.7R
S GREEN BAY BUOY 2300   62 62   50/ 17/ 19 1020.8
N MID LAKE BUOY  2250   62 66   30/ 17/ 19 1021.0R   3/ 4
NORTHPORT PIER   2300   62      30/  9/ 13 1021.7R
SISTER BAY       2308   62      20/  5/  8   N/A
KEWAUNEE LAKESHO 2300   59      10/  9/ 14 1020.5R
SHEBOYGAN LAKESH 2300   60      10/ 19/ 21 1019.8R
PORT WASHINGTON  2300   61      10/  6/ 16 1020.0R
ATWATER BUOY     2300   57 54   10/ 19/ 23 1018.5R
MILWAUKEE LAKESH 2310   59     360/ 19/ 23   N/A
S MID LAKE BUOY  2250   64 69   50/ 17/ 23 1015.7R   5/ 5
KENOSHA   LAKESH 2300   58     360/ 22/ 29 1017.3R
$$

TC  - TEMPERATURE IN CELSIUS
VSB - VISIBILITY IN STATUTE MILES
WCI - WIND CHILL INDEX
HX  - HEAT INDEX





USA.gov is the U.S. government's official web portal to all federal, state and local government web resources and services.